Regional Weather Roundup
Issued by NWS Wilmington, NC

Home | Current Version | Previous Version | Text Only | Print | Product List | Glossary On
Versions: 1 2 3 4 5 6 7 8 9 10 11 12 13 14 15 16 17 18 19 20 21 22 23 24 25 26 27 28 29 30 31 32 33 34 35 36 37 38 39 40 41 42 43 44 45 46 47 48 49 50
000
ASUS42 KILM 020513
RWRILM
RWRILM
REGIONAL HOURLY WEATHER ROUNDUP
NATIONAL WEATHER SERVICE WILMINGTON NC
100 AM EDT THU JUL 02 2015

NOTE: "FAIR" INDICATES FEW OR NO CLOUDS BELOW 12,000 FEET WITH NO
SIGNIFICANT WEATHER AND/OR OBSTRUCTIONS TO VISIBILITY.

...............WFO WILMINGTON COUNTY WARNING AREA...............

......COASTAL NC AND SC COUNTIES......

CITY           SKY/WX    TMP DP  RH WIND       PRES   REMARKS
WILMINGTON     CLEAR     77  72  84 S6        29.98F
N MYRTLE BEACH CLEAR     81  71  71 SW7       29.98F
MYRTLE BEACH   CLEAR     81  70  69 SW7       30.01F

......INLAND NC AND SC COUNTIES.......

CITY           SKY/WX    TMP DP  RH WIND       PRES   REMARKS
LUMBERTON      CLEAR     77  72  84 SW8       29.96F
ELIZABETHTOWN  NOT AVBL
WHITEVILLE     NOT AVBL
FLORENCE       PTCLDY    77  71  82 SW9       29.98S
DARLINGTON     MOCLDY    77  70  78 SW7       29.98F

....................REST OF NORTH CAROLINA......................

.........EASTERN NC.........

CITY           SKY/WX    TMP DP  RH WIND       PRES   REMARKS
CAPE HATTERAS  CLEAR     79  75  87 W10       29.96S
JACKSONVILLE   CLEAR     73  68  83 S6        29.97F
MOREHEAD CITY  CLEAR     79  76  90 SW12      29.97F
KENANSVILLE    NOT AVBL
NEW BERN       PTCLDY    75  72  90 SW5       29.98S
ELIZABETH CITY CLEAR     76  72  87 SW10      29.94S

.........CENTRAL NC.........

CITY           SKY/WX    TMP DP  RH WIND       PRES   REMARKS
RALEIGH DURHAM CLOUDY    77  70  79 SW5       29.94F
ROCKY MOUNT    MOCLDY    77  72  84 SW6       29.93F
ROANOKE RAPIDS NOT AVBL
FAYETTEVILLE   MOCLDY    77  71  82 SW9       29.95F
HOFFMAN        CLOUDY    77  71  82 S6        29.99F

.........WESTERN NC.........

CITY           SKY/WX    TMP DP  RH WIND       PRES   REMARKS
CHARLOTTE      CLOUDY    76  67  73 SW7       29.97F
GREENSBORO     CLOUDY    74  68  81 SW6       29.95F
HICKORY        NOT AVBL
BOONE          NOT AVBL
ASHEVILLE      NOT AVBL

.....................REST OF SOUTH CAROLINA.....................

.........EASTERN SC.........

CITY           SKY/WX    TMP DP  RH WIND       PRES   REMARKS
CHARLESTON     PTCLDY    78  75  90 SW7       30.00F
BEAUFORT MCAS  MOCLDY    73  68  84 W8        30.04S
HILTON HEAD    CLOUDY    79  70  73 SW5       30.05F

.........CENTRAL SC.........

CITY           SKY/WX    TMP DP  RH WIND       PRES   REMARKS
COLUMBIA       CLOUDY    77  65  66 W6        29.99F
ORANGEBURG     MOCLDY    76  70  82 W3        30.01F
SUMTER SHAW    NOT AVBL

.........WESTERN SC.........

CITY           SKY/WX    TMP DP  RH WIND       PRES   REMARKS
GREENVILLE     NOT AVBL
ROCK HILL      CLOUDY    75  67  76 SW7       29.98F
ANDERSON       CLOUDY    70  67  90 W6        30.03S
CLEMSON        NOT AVBL
GREENWOOD      CLOUDY    70  68  93 W8        30.04R


...................COASTAL AND OFFSHORE REPORTS..................

................LOCAL PIERS AND NC RESERVE................


STATION/POSITION TIME  SKY/WX   TEMP    WIND        PRES    VSBY
                                AIR SEA DIR/SP/G
                 (UTC)          (F)     (DEG/KT/KT) (MB)    (MI)
JOHNY MRCER PIER 0400            79 81  220/  9/ 11 1015.1S
NC RESRV MASNBRO NOT AVBL
OCEAN CREST PIER NOT AVBL
SPRINGMAID  PIER 0400            81 83  210/  9/ 12 1015.9F


................COASTAL AND OFFSHORE BUOYS................


STATION/POSITION TIME  SKY/WX   TEMP    WIND        PRES    VSBY
                                AIR SEA DIR/SP/G
                 (UTC)          (F)     (DEG/KT/KT) (MB)    (MI)
DIMNDSHOAL 41025 0450            80 82  240/ 17/ 19 1014.4S
WVE H/P(F/S)=  5/ 8 WND WVE H/P(F/S)=  5/ 6 SWL H/P/D(F/S/D)=  3/180/ 8

CAPE LOOKOUT     0500            79     250/ 11/ 17 1014.8F
ONSLOW BAY 41036 NOT AVBL
5 WRITEBCH 41038 NOT AVBL
MASONBORO  41110 0419               80                N/A
WVE H/P(F/S)=  3/ 8 WND WVE H/P(F/S)=  3/ 8

WILM HARBR 41108 0411               81                N/A
WVE H/P(F/S)=  4/ 7 WND WVE H/P(F/S)=  3/ 7

27WRITEBCH 41037 0400               80  250/ 16/ 17   N/A
FRYING PAN 41013 0450            81 80  220/ 16/ 19 1016.3F
WVE H/P(F/S)=  4/ 7 WND WVE H/P(F/S)=  3/ 5 SWL H/P/D(F/S/D)=  3/180/ 7

SUNST NRSH 41024 0408            83     240/ 14/ 17 1015.6F
CAPRS NRSH 41029 0408            82     230/ 16/ 19 1016.8F
EDISTO     41004 0450            77 82  180/ 17/ 21 1016.4F
WVE H/P(F/S)=  4/ 6 WND WVE H/P(F/S)=  3/ 6 SWL H/P/D(F/S/D)=  2/ 8



..........OFFSHORE BUOYS BEYOND 100 NM OFFSHORE...........
.....IN A TRIANGLE---HAT TO BERMUDA TO BAHAMAS TO HAT.....


STATION/POSITION TIME  SKY/WX   TEMP    WIND        PRES    VSBY
                                AIR SEA DIR/SP/G
                 (UTC)          (F)     (DEG/KT/KT) (MB)    (MI)
150E HAT   41001 NOT AVBL
W BERMUDA  41048 0450            81 80  190/ 14/ 16 1021.5F
WVE H/P(F/S)=  5/ 7 WND WVE H/P(F/S)=  3/ 5 SWL H/P/D(F/S/D)=  3/210/ 7

ATLANTIC S 41049 0450            81 83  110/ 10/ 12 1023.5F
WVE H/P(F/S)=  4/ 8 WND WVE H/P(F/S)=  2/ 5 SWL H/P/D(F/S/D)=  3/130/ 8

E BAHAMAS  41046 0450            82 83  110/ 14/ 16 1021.5F
WVE H/P(F/S)=  6/ 9 WND WVE H/P(F/S)=  3/ 6 SWL H/P/D(F/S/D)=  5/110/ 9

NE BAHAMAS 41047 0450            82 83  150/ 10/ 12 1021.8F
WVE H/P(F/S)=  4/ 8 WND WVE H/P(F/S)=  2/ 5 SWL H/P/D(F/S/D)=  3/120/ 8

120E CANVRL41010 0420            84 84  220/ 10/ 12 1020.4F

END


USA.gov is the U.S. government's official web portal to all federal, state and local government web resources and services.